sat.trackr.live / text

‹ back to catalog

STARLINK-31555

NORAD 59351 · 2024-060D

PAYLOAD ACTIVE UNKNOWN

§ Identity

Operator
Country
US
Launch date
2024-03-31
Launch site
AFETR
Launch vehicle
Mass (kg)
RCS (m²)

Purposes: comms

External: N2YO · Heavens-Above · Gunter

§ Orbital elements

Epoch: 2026-05-25T03:21:03.918816Z

Period
94.27 min
Inclination
42.9967°
Eccentricity
0.0001427
Mean motion
15.27586675 rev/d
Perigee alt
482.1 km
Apogee alt
484.0 km
Semi-major
6,861.2 km
B*
-4.0301e-6
RAAN
188.2089°
Arg perigee
282.5963°
Mean anomaly
77.4729°
Rev number
12,180

§ Raw data

STARLINK-315551 59351U 24060D   26145.13962869 -.00000373  00000+0 -40301-5 0  99942 59351  42.9967 188.2089 0001427 282.5963  77.4729 15.27586675121807

JSON: /api/v1/satellites/59351 · /tle

For live sub-satellite position, see the globe view (requires WebGL).

§ Visibility from observer

Set your observer location to see the next 7 days of passes ≥ 10°. The values pass through the URL so the page stays shareable.

No JS? Fill the form by hand. The geolocation button needs JavaScript.